�������l�o���
Date,Time,MP-1(��Sv/h),MP-2(��Sv/h),MP-3(��Sv/h),MP-4(��Sv/h),MP-5(��Sv/h),MP-6(��Sv/h),MP-7(��Sv/h),MP-8(��Sv/h),����,����(m/s),���J
2018/10/06,00:00,0.793,1.202,0.836,1.488,1.063,0.465,0.810,0.765,��쐼,2.0,��
2018/10/06,00:10,0.793,1.199,0.835,1.489,1.063,0.464,0.809,0.766,��쐼,1.7,��
2018/10/06,00:20,0.791,1.201,0.837,1.487,1.063,0.466,0.809,0.766,��,2.6,�L
2018/10/06,00:30,0.793,1.200,0.837,1.488,1.063,0.465,0.809,0.766,��,3.1,�L
2018/10/06,00:40,0.792,1.199,0.836,1.489,1.061,0.465,0.809,0.766,��,2.6,�L
2018/10/06,00:50,0.791,1.197,0.837,1.490,1.062,0.465,0.809,0.766,��,3.1,�L
2018/10/06,01:00,0.793,1.198,0.835,1.486,1.062,0.464,0.808,0.766,��쓌,3.8,�L
2018/10/06,01:10,0.792,1.194,0.835,1.487,1.060,0.463,0.810,0.765,��쓌,3.4,�L
2018/10/06,01:20,0.790,1.193,0.835,1.485,1.060,0.464,0.808,0.766,��쓌,2.3,�L
2018/10/06,01:30,0.790,1.195,0.835,1.484,1.060,0.464,0.809,0.766,��,2.3,�L
2018/10/06,01:40,0.791,1.194,0.834,1.483,1.060,0.464,0.810,0.764,��,2.2,�L
2018/10/06,01:50,0.788,1.193,0.834,1.485,1.058,0.463,0.808,0.765,��,2.6,�L
2018/10/06,02:00,0.788,1.191,0.834,1.485,1.057,0.466,0.807,0.763,��,3.0,�L
2018/10/06,02:10,0.789,1.190,0.833,1.485,1.059,0.465,0.808,0.765,��쓌,2.3,�L
2018/10/06,02:20,0.789,1.191,0.834,1.483,1.060,0.465,0.807,0.764,��쓌,2.0,�L
2018/10/06,02:30,0.787,1.190,0.835,1.484,1.057,0.466,0.809,0.763,��쓌,1.9,�L
2018/10/06,02:40,0.791,1.192,0.834,1.485,1.057,0.464,0.808,0.764,��쓌,0.6,�L
2018/10/06,02:50,0.790,1.188,0.831,1.483,1.055,0.463,0.808,0.765,�쓌,0.6,�L
2018/10/06,03:00,0.784,1.183,0.832,1.479,1.054,0.463,0.806,0.764,���쓌,0.6,�L
2018/10/06,03:10,0.786,1.181,0.831,1.478,1.052,0.462,0.806,0.762,-,CALM,�L
2018/10/06,03:20,0.782,1.175,0.826,1.473,1.044,0.462,0.802,0.760,���쓌,0.8,�L
2018/10/06,03:30,0.777,1.167,0.821,1.467,1.038,0.461,0.801,0.757,��,0.9,�L
2018/10/06,03:40,0.771,1.159,0.821,1.458,1.035,0.460,0.802,0.757,�쓌,1.5,�L
2018/10/06,03:50,0.771,1.156,0.819,1.455,1.036,0.461,0.801,0.757,�쓌,1.9,�L
2018/10/06,04:00,0.772,1.158,0.821,1.456,1.032,0.458,0.801,0.756,�쓌,1.1,��
2018/10/06,04:10,0.773,1.156,0.819,1.456,1.033,0.460,0.800,0.757,�쓌,0.9,�L
2018/10/06,04:20,0.772,1.158,0.819,1.455,1.035,0.458,0.800,0.755,���쓌,1.4,��
2018/10/06,04:30,0.772,1.159,0.818,1.457,1.036,0.459,0.801,0.756,��쓌,1.4,��
2018/10/06,04:40,0.771,1.157,0.818,1.457,1.037,0.459,0.799,0.757,��,2.3,�L
2018/10/06,04:50,0.772,1.158,0.820,1.454,1.036,0.460,0.800,0.756,��쓌,3.2,��
2018/10/06,05:00,0.775,1.158,0.821,1.456,1.038,0.458,0.800,0.757,��쓌,3.2,��
2018/10/06,05:10,0.773,1.160,0.818,1.455,1.035,0.459,0.800,0.757,��,3.1,��
2018/10/06,05:20,0.772,1.158,0.820,1.458,1.036,0.461,0.801,0.755,��쓌,4.3,��
2018/10/06,05:30,0.772,1.159,0.820,1.455,1.037,0.459,0.799,0.758,��쓌,5.2,��
2018/10/06,05:40,0.771,1.159,0.818,1.455,1.039,0.460,0.801,0.757,��쓌,5.7,��
2018/10/06,05:50,0.771,1.159,0.819,1.455,1.034,0.460,0.801,0.755,��,5.1,��
2018/10/06,06:00,0.768,1.159,0.818,1.453,1.036,0.458,0.798,0.757,��,5.2,��
2018/10/06,06:10,0.770,1.159,0.819,1.454,1.036,0.459,0.801,0.754,��,6.0,��
2018/10/06,06:20,0.772,1.161,0.819,1.452,1.038,0.457,0.801,0.755,��,5.6,��
2018/10/06,06:30,0.771,1.157,0.818,1.452,1.037,0.458,0.800,0.755,��,5.0,��
2018/10/06,06:40,0.772,1.160,0.819,1.454,1.037,0.458,0.800,0.756,��쐼,4.2,��
2018/10/06,06:50,0.771,1.160,0.820,1.451,1.037,0.458,0.799,0.757,��쐼,3.4,��
2018/10/06,07:00,0.771,1.160,0.819,1.455,1.038,0.459,0.800,0.756,��쐼,2.0,��
2018/10/06,07:10,0.771,1.158,0.818,1.455,1.036,0.458,0.801,0.757,��쓌,2.2,��
2018/10/06,07:20,0.773,1.157,0.817,1.455,1.036,0.457,0.799,0.756,��쓌,1.7,��
2018/10/06,07:30,0.771,1.158,0.819,1.453,1.036,0.457,0.802,0.758,��쓌,1.9,��
2018/10/06,07:40,0.771,1.158,0.818,1.457,1.037,0.457,0.800,0.759,���쓌,1.5,��
2018/10/06,07:50,0.772,1.157,0.819,1.457,1.038,0.456,0.799,0.756,�쓌,1.5,��
2018/10/06,08:00,0.771,1.158,0.819,1.454,1.036,0.458,0.800,0.755,�쓌,2.3,��
2018/10/06,08:10,0.773,1.156,0.817,1.458,1.036,0.459,0.799,0.756,���쓌,1.5,��
2018/10/06,08:20,0.772,1.157,0.819,1.458,1.037,0.458,0.800,0.757,���쓌,1.9,��
2018/10/06,08:30,0.772,1.159,0.818,1.455,1.037,0.457,0.799,0.756,��,0.9,��
2018/10/06,08:40,0.771,1.156,0.818,1.457,1.038,0.458,0.803,0.756,���쐼,0.6,��
2018/10/06,08:50,0.771,1.157,0.820,1.458,1.040,0.458,0.802,0.756,-,CALM,��
2018/10/06,09:00,0.773,1.157,0.818,1.456,1.038,0.457,0.804,0.756,-,CALM,��
2018/10/06,09:10,0.774,1.160,0.819,1.457,1.039,0.460,0.802,0.755,�k�k��,1.2,��
2018/10/06,09:20,0.772,1.156,0.818,1.458,1.040,0.460,0.802,0.756,-,CALM,��
2018/10/06,09:30,0.776,1.159,0.817,1.455,1.042,0.459,0.804,0.758,���쓌,1.7,��
2018/10/06,09:40,0.774,1.157,0.817,1.457,1.042,0.458,0.803,0.755,�쓌,2.8,��
2018/10/06,09:50,0.775,1.157,0.818,1.459,1.043,0.461,0.804,0.758,�쓌,3.1,��
2018/10/06,10:00,0.775,1.160,0.820,1.460,1.042,0.459,0.805,0.756,�쓌,5.2,��
2018/10/06,10:10,0.775,1.160,0.819,1.459,1.043,0.459,0.804,0.756,�쓌,3.8,��
2018/10/06,10:20,0.775,1.162,0.818,1.458,1.044,0.460,0.805,0.759,�쓌,4.3,��
2018/10/06,10:30,0.775,1.163,0.819,1.458,1.043,0.460,0.804,0.758,�쓌,4.4,��
2018/10/06,10:40,0.777,1.167,0.820,1.460,1.046,0.461,0.804,0.759,�쓌,4.4,��
2018/10/06,10:50,0.775,1.166,0.822,1.459,1.044,0.461,0.805,0.760,��쓌,5.0,��
2018/10/06,11:00,0.781,1.164,0.823,1.462,1.046,0.461,0.804,0.758,��쓌,4.8,��
2018/10/06,11:10,0.777,1.166,0.820,1.462,1.047,0.459,0.807,0.759,��쓌,4.7,��
2018/10/06,11:20,0.778,1.168,0.823,1.461,1.048,0.462,0.807,0.757,��쓌,5.1,��
2018/10/06,11:30,0.779,1.168,0.825,1.460,1.049,0.462,0.807,0.758,��쓌,5.3,��
2018/10/06,11:40,0.778,1.168,0.823,1.460,1.049,0.461,0.807,0.760,�쓌,4.5,��
2018/10/06,11:50,0.779,1.171,0.825,1.461,1.049,0.462,0.808,0.759,��,6.2,��
2018/10/06,12:00,0.780,1.171,0.824,1.462,1.048,0.463,0.806,0.761,��,6.3,��
2018/10/06,12:10,0.781,1.172,0.826,1.463,1.050,0.463,0.806,0.760,��,7.3,��
2018/10/06,12:20,0.780,1.171,0.825,1.461,1.051,0.463,0.808,0.760,��,8.1,��
2018/10/06,12:30,0.781,1.175,0.826,1.461,1.051,0.463,0.808,0.761,��,6.8,��
2018/10/06,12:40,0.782,1.174,0.825,1.463,1.049,0.465,0.808,0.759,��,8.0,��
2018/10/06,12:50,0.782,1.171,0.824,1.462,1.053,0.465,0.808,0.760,��,6.7,��
2018/10/06,13:00,0.782,1.174,0.824,1.464,1.050,0.465,0.806,0.760,��,7.4,��
2018/10/06,13:10,0.781,1.177,0.826,1.464,1.053,0.464,0.808,0.762,��쓌,6.0,��
2018/10/06,13:20,0.781,1.172,0.826,1.465,1.054,0.463,0.809,0.763,��,8.5,��
2018/10/06,13:30,0.780,1.174,0.826,1.464,1.053,0.462,0.807,0.762,��,5.2,��
2018/10/06,13:40,0.781,1.175,0.827,1.465,1.053,0.464,0.809,0.760,��,7.4,��
2018/10/06,13:50,0.783,1.173,0.826,1.464,1.052,0.465,0.809,0.761,��,8.7,��
2018/10/06,14:00,0.784,1.172,0.827,1.465,1.054,0.464,0.808,0.761,��,6.8,��
2018/10/06,14:10,0.783,1.173,0.828,1.466,1.052,0.465,0.809,0.764,��,8.2,��
2018/10/06,14:20,0.783,1.175,0.827,1.466,1.052,0.463,0.809,0.762,��,10.5,��
2018/10/06,14:30,0.784,1.176,0.826,1.466,1.051,0.464,0.807,0.762,��,10.7,��
2018/10/06,14:40,0.784,1.177,0.828,1.466,1.052,0.464,0.809,0.761,��,10.6,��
2018/10/06,14:50,0.782,1.174,0.829,1.465,1.053,0.465,0.807,0.762,��,10.3,��
2018/10/06,15:00,0.783,1.177,0.825,1.467,1.053,0.465,0.807,0.761,��,10.7,��
2018/10/06,15:10,0.783,1.173,0.826,1.466,1.055,0.463,0.808,0.762,��,10.5,��
2018/10/06,15:20,0.783,1.174,0.827,1.467,1.053,0.465,0.807,0.761,��,10.6,��
2018/10/06,15:30,0.785,1.176,0.828,1.465,1.055,0.467,0.807,0.762,��,10.5,��
2018/10/06,15:40,0.784,1.177,0.828,1.465,1.053,0.466,0.807,0.762,��,9.9,��
2018/10/06,15:50,0.784,1.178,0.826,1.468,1.053,0.466,0.808,0.761,��,10.0,��
2018/10/06,16:00,0.784,1.181,0.826,1.466,1.056,0.466,0.808,0.761,��,10.2,��
2018/10/06,16:10,0.782,1.180,0.826,1.468,1.055,0.465,0.808,0.762,��,10.7,��
2018/10/06,16:20,0.783,1.179,0.826,1.468,1.055,0.466,0.805,0.761,��,12.0,��
2018/10/06,16:30,0.784,1.182,0.828,1.467,1.055,0.466,0.809,0.761,��,11.3,��
2018/10/06,16:40,0.783,1.183,0.826,1.466,1.055,0.466,0.808,0.759,��쓌,11.9,��
2018/10/06,16:50,0.783,1.181,0.827,1.466,1.055,0.467,0.808,0.762,��쓌,11.3,��
2018/10/06,17:00,0.783,1.182,0.826,1.467,1.054,0.466,0.809,0.760,��,10.9,��
2018/10/06,17:10,0.783,1.181,0.827,1.465,1.056,0.466,0.811,0.762,��,10.9,��
2018/10/06,17:20,0.784,1.184,0.828,1.465,1.056,0.467,0.807,0.762,��,9.5,��
2018/10/06,17:30,0.781,1.182,0.828,1.467,1.054,0.468,0.809,0.763,��,11.0,��
2018/10/06,17:40,0.782,1.183,0.829,1.467,1.055,0.468,0.809,0.764,��,11.3,��
2018/10/06,17:50,0.783,1.181,0.832,1.467,1.054,0.467,0.810,0.764,��쓌,10.7,��
2018/10/06,18:00,0.783,1.182,0.830,1.471,1.052,0.467,0.810,0.764,��,10.6,��
2018/10/06,18:10,0.782,1.184,0.832,1.466,1.053,0.467,0.809,0.764,��,8.5,��
2018/10/06,18:20,0.782,1.182,0.830,1.468,1.055,0.468,0.810,0.764,��,7.7,��
2018/10/06,18:30,0.783,1.181,0.829,1.465,1.054,0.467,0.811,0.762,��,7.9,��
2018/10/06,18:40,0.782,1.181,0.830,1.469,1.053,0.467,0.810,0.765,��,9.4,��
2018/10/06,18:50,0.783,1.180,0.831,1.467,1.055,0.467,0.812,0.766,��,9.7,��
2018/10/06,19:00,0.784,1.184,0.832,1.470,1.053,0.466,0.810,0.763,��,13.3,��
2018/10/06,19:10,0.784,1.184,0.831,1.469,1.057,0.468,0.811,0.765,��,11.0,��
2018/10/06,19:20,0.784,1.184,0.834,1.465,1.054,0.469,0.810,0.764,��,11.4,��
2018/10/06,19:30,0.783,1.184,0.831,1.469,1.056,0.467,0.811,0.764,��,10.9,��
2018/10/06,19:40,0.783,1.185,0.832,1.467,1.057,0.468,0.808,0.766,��,11.0,��
2018/10/06,19:50,0.783,1.182,0.833,1.467,1.055,0.467,0.809,0.763,��,10.7,��
2018/10/06,20:00,0.783,1.183,0.831,1.469,1.054,0.466,0.808,0.766,��,12.4,��
2018/10/06,20:10,0.785,1.185,0.829,1.469,1.055,0.468,0.809,0.765,��,11.3,��
2018/10/06,20:20,0.783,1.180,0.831,1.468,1.054,0.467,0.810,0.765,��,12.4,��
2018/10/06,20:30,0.782,1.181,0.828,1.468,1.055,0.467,0.810,0.762,��,10.9,��
2018/10/06,20:40,0.784,1.182,0.829,1.466,1.056,0.467,0.808,0.765,��,9.2,��
2018/10/06,20:50,0.783,1.182,0.829,1.468,1.055,0.466,0.809,0.764,��,9.4,��
2018/10/06,21:00,0.783,1.183,0.831,1.468,1.054,0.466,0.809,0.764,��,10.8,��
2018/10/06,21:10,0.782,1.180,0.832,1.466,1.056,0.467,0.809,0.765,��,10.5,��
2018/10/06,21:20,0.785,1.180,0.831,1.470,1.057,0.468,0.810,0.765,��,10.2,��
2018/10/06,21:30,0.784,1.184,0.831,1.466,1.056,0.467,0.810,0.764,��,9.8,��
2018/10/06,21:40,0.784,1.183,0.833,1.470,1.057,0.467,0.810,0.766,��,10.3,��
2018/10/06,21:50,0.782,1.184,0.831,1.467,1.054,0.467,0.809,0.763,��,11.6,��
2018/10/06,22:00,0.782,1.185,0.831,1.467,1.055,0.467,0.808,0.766,��,11.7,��
2018/10/06,22:10,0.783,1.186,0.830,1.469,1.060,0.469,0.810,0.763,��,11.3,��
2018/10/06,22:20,0.782,1.185,0.830,1.468,1.055,0.467,0.812,0.764,��,11.3,��
2018/10/06,22:30,0.784,1.181,0.830,1.466,1.054,0.468,0.809,0.765,��,10.7,��
2018/10/06,22:40,0.782,1.182,0.832,1.469,1.057,0.467,0.810,0.765,��쓌,11.0,��
2018/10/06,22:50,0.783,1.183,0.834,1.469,1.056,0.468,0.810,0.764,��쓌,11.1,��
2018/10/06,23:00,0.783,1.183,0.831,1.469,1.053,0.467,0.810,0.764,��쓌,10.3,��
2018/10/06,23:10,0.783,1.180,0.831,1.470,1.054,0.468,0.810,0.764,��,10.7,��
2018/10/06,23:20,0.782,1.181,0.831,1.468,1.054,0.467,0.810,0.764,��쓌,10.8,��
2018/10/06,23:30,0.783,1.182,0.831,1.465,1.057,0.470,0.810,0.764,��쓌,11.8,��
2018/10/06,23:40,0.782,1.181,0.830,1.468,1.054,0.467,0.810,0.764,��,10.3,��
2018/10/06,23:50,0.786,1.183,0.830,1.470,1.054,0.468,0.811,0.766,��,10.6,��
